CAS500-1

Last updated on Mon Jun 22 2026 00:02:52 GMT+0000 (Coordinated Universal Time)

1 47932U 21022A 26172.53913600 .00004767 00000+0 22335-3 0 9998 2 47932 97.3894 67.7042 0003219 277.4521 82.6348 15.20173434291425
UTC large
Height (km)
Speed (km/s)
/
Latitude / Longitude
Inclination (degrees)
Orbital Period (minutes)
Azimuth
Elevation
Range (km)
Doppler Factor

Next 0 passes for location: London (51.5072 / 0.1276)

No passes found over London.
CAS500-1